Location: eljas
(40.1958°N, 6.8661°W)
Time: 12:12:41
(UTC+02:00)

Amateur Radio Satellites - All Passes

Search period start: 01 October 2014 11:42
Search period end: 02 October 2014 11:42
Location: eljas, 40.1958°N, 6.8661°W

Satellite Date Start Highest point End Downlink Frequencies (MHz)
Time Altitude Azimuth
RS-15 01 Oct 11:47:43 11:58:03 42° 42° (NE) 12:08:41 29.354 - 29.394 USB, Beacon 29.352 USB
Oscar 11 01 Oct 12:02:42 12:06:59 58° 100° (E) 12:11:13 145.825 FM, Beacon 2401.500 USB
PCSat 01 Oct 12:06:02 12:11:08 42° 305° (NW) 12:16:17 145.825 MHz
FUNcube-1 01 Oct 12:26:52 12:31:14 44° 98° (E) 12:35:28 145.950 - 145.970 MHz USB
UKube-1 01 Oct 12:32:11 12:36:26 52° 287° (WNW) 12:40:40 145.840 MHz, 145.915 MHz
ZACube-1 01 Oct 13:12:00 13:16:30 58° 286° (WNW) 13:20:52 437.345 MHz
HO-68 01 Oct 13:12:28 13:18:06 26° 301° (WNW) 13:23:44 435.675 MHz FM
Sapphire 01 Oct 13:27:17 13:29:48 13° 320° (NW) 13:32:20 437.095 MHz 1200 baud AX-25 AFSK
Oscar 16 01 Oct 13:38:33 13:40:33 12° 59° (ENE) 13:42:34 437.025 USB, Beacon 2401.1428
Oscar 11 01 Oct 13:40:41 13:42:39 13° 297° (WNW) 13:44:37 145.825 FM, Beacon 2401.500 USB
RS-15 01 Oct 14:00:04 14:11:01 65° 245° (WSW) 14:22:27 29.354 - 29.394 USB, Beacon 29.352 USB
FUNcube-1 01 Oct 14:04:11 14:07:14 18° 295° (WNW) 14:10:14 145.950 - 145.970 MHz USB
Oscar 19 01 Oct 14:33:23 14:38:08 38° 69° (ENE) 14:42:54 437.125 CW, 437.150 USB
JAS-1B 01 Oct 14:39:17 14:45:53 35° 68° (ENE) 14:51:36 435.800 - 435.900 CW/SSB
ITAMSAT 1 01 Oct 14:46:23 14:50:16 22° 64° (ENE) 14:54:10 435.822 SSB
Uribyol 2 01 Oct 14:47:03 14:51:05 24° 65° (ENE) 14:55:10 436.500 FM
Saudisat 1A 01 Oct 15:07:00 15:10:48 29° 114° (ESE) 15:14:37 436.775 MHz
Oscar 16 01 Oct 15:13:56 15:19:09 87° 256° (WSW) 15:24:22 437.025 USB, Beacon 2401.1428
AO-Echo 01 Oct 15:23:16 15:27:49 53° 73° (ENE) 15:32:25 ?
AO-27 01 Oct 15:23:34 15:28:31 48° 71° (ENE) 15:33:30 436.795 MHz FM
Gurwin Techsat 1B 01 Oct 15:49:04 15:53:59 41° 70° (ENE) 15:58:55 435.225 FM
AO-7 01 Oct 16:06:37 16:12:36 23° 53° (NE) 16:18:34 29.400 - 29.500 MHz
Oscar 19 01 Oct 16:13:17 16:17:32 25° 265° (W) 16:21:49 437.125 CW, 437.150 USB
TMSAT-1 01 Oct 16:17:22 16:22:30 54° 72° (ENE) 16:27:40 436.925 FM
RS-15 01 Oct 16:17:36 16:21:08 12° 265° (W) 16:24:43 29.354 - 29.394 USB, Beacon 29.352 USB
ITAMSAT 1 01 Oct 16:24:29 16:29:26 46° 261° (W) 16:34:26 435.822 SSB
Uribyol 2 01 Oct 16:25:23 16:30:17 42° 261° (W) 16:35:14 436.500 FM
JAS-1B 01 Oct 16:29:12 16:36:26 41° 260° (W) 16:42:36 435.800 - 435.900 CW/SSB
Uosat F 01 Oct 16:46:25 16:49:36 17° 62° (ENE) 16:52:48 435.120 FM
Saudisat 1A 01 Oct 16:46:26 16:50:19 30° 311° (NW) 16:54:13 436.775 MHz
MaSat-1 01 Oct 16:48:41 16:52:02 67° 63° (ENE) 16:54:54 437.345 MHz
AO-Echo 01 Oct 17:04:19 17:06:56 15° 269° (W) 17:09:34 ?
AO-27 01 Oct 17:04:34 17:08:16 20° 267° (W) 17:12:00 436.795 MHz FM
Gurwin Techsat 1B 01 Oct 17:29:47 17:34:03 25° 266° (W) 17:38:21 435.225 FM
AO-7 01 Oct 17:56:06 18:04:25 85° 252° (WSW) 18:12:46 29.400 - 29.500 MHz
TMSAT-1 01 Oct 17:59:11 18:02:44 18° 268° (W) 18:06:18 436.925 FM
Uosat F 01 Oct 18:23:01 18:27:55 57° 259° (W) 18:32:51 435.120 FM
KITSAT 1 01 Oct 18:24:21 18:32:10 56° 113° (ESE) 18:40:00 435.175 FM
OPAL 01 Oct 18:33:11 18:37:02 21° 96° (E) 18:40:49 ?
Sapphire 01 Oct 18:46:48 18:49:41 14° 41° (NE) 18:52:34 437.095 MHz 1200 baud AX-25 AFSK
JAS-2 01 Oct 18:47:55 18:52:41 39° 69° (ENE) 18:57:43 435.800 - 435.900 CW/SSB, 435.910 FM
Hamsat 01 Oct 19:02:30 19:06:32 39° 72° (ENE) 19:10:34 145.90 MHz
PCSat 01 Oct 19:11:32 19:15:45 22° 47° (NE) 19:19:57 145.825 MHz
AO-7 01 Oct 19:53:42 19:58:16 16° 270° (W) 20:02:52 29.400 - 29.500 MHz
SO-50 01 Oct 20:06:48 20:10:21 24° 112° (ESE) 20:13:58 436.795 FM
OPAL 01 Oct 20:11:16 20:16:06 44° 292° (WNW) 20:20:50 ?
KITSAT 1 01 Oct 20:20:33 20:27:52 37° 313° (NW) 20:35:15 435.175 FM
Sapphire 01 Oct 20:28:33 20:34:00 80° 61° (ENE) 20:39:26 437.095 MHz 1200 baud AX-25 AFSK
JAS-2 01 Oct 20:34:00 20:38:02 23° 267° (W) 20:42:12 435.800 - 435.900 CW/SSB, 435.910 FM
Hamsat 01 Oct 20:39:46 20:42:38 17° 267° (W) 20:45:30 145.90 MHz
PCSat 01 Oct 20:54:13 20:59:33 58° 246° (WSW) 21:04:51 145.825 MHz
SO-67 01 Oct 21:00:49 21:04:13 60° 260° (W) 21:07:39 435.3500 MHz FM
STRAND 1 01 Oct 21:13:02 21:18:11 67° 102° (ESE) 21:23:18 ?
SO-50 01 Oct 21:46:29 21:50:41 37° 309° (NW) 21:54:59 436.795 FM
HO-68 01 Oct 21:51:41 21:58:23 45° 66° (ENE) 22:05:06 435.675 MHz FM
UKube-1 01 Oct 21:53:50 21:55:29 12° 62° (ENE) 21:57:07 145.840 MHz, 145.915 MHz
UOSAT-12 01 Oct 22:11:42 22:15:57 38° 115° (ESE) 22:20:17 437.025 FM, 437.400 FM
Sapphire 01 Oct 22:14:16 22:16:41 13° 257° (WSW) 22:19:06 437.095 MHz 1200 baud AX-25 AFSK
KITSAT 1 01 Oct 22:23:02 22:26:08 12° 340° (NNW) 22:29:13 435.175 FM
PANSAT 01 Oct 22:32:41 22:34:47 14° 177° (S) 22:36:53 not established
ZACube-1 01 Oct 22:34:52 22:36:09 11° 61° (ENE) 22:37:27 437.345 MHz
STRAND 1 01 Oct 22:53:48 22:56:48 16° 299° (WNW) 22:59:48 ?
Oscar 11 01 Oct 22:57:05 23:01:11 42° 72° (ENE) 23:05:19 145.825 FM, Beacon 2401.500 USB
FUNcube-1 01 Oct 23:22:33 23:26:38 34° 70° (ENE) 23:30:48 145.950 - 145.970 MHz USB
UKube-1 01 Oct 23:26:49 23:31:06 65° 258° (WSW) 23:35:26 145.840 MHz, 145.915 MHz
Saudisat 1A 01 Oct 23:34:02 23:37:35 23° 46° (NE) 23:41:07 436.775 MHz
ISS 01 Oct 23:38:13 23:41:31 67° 140° (SE) 23:44:50 145.800 FM
HO-68 01 Oct 23:39:50 23:46:10 34° 263° (W) 23:52:34 435.675 MHz FM
UOSAT-12 01 Oct 23:52:13 23:56:11 27° 313° (NW) 00:00:13 437.025 FM, 437.400 FM
ZACube-1 02 Oct 00:07:19 00:11:51 79° 258° (WSW) 00:16:30 437.345 MHz
Oscar 10/S400 02 Oct 00:10:38 00:53:28 55° 202° (SSW) 09:11:45 145.825 - 145.975 CW/USB, Beacon 145.810 USB
PANSAT 02 Oct 00:12:44 00:14:13 12° 190° (S) 00:15:42 not established
KITSAT 1 02 Oct 00:24:58 00:26:11 10° 12° (NNE) 00:27:24 435.175 FM
Oscar 11 02 Oct 00:34:47 00:37:33 16° 268° (W) 00:40:20 145.825 FM, Beacon 2401.500 USB
FUNcube-1 02 Oct 00:59:30 01:03:04 23° 266° (W) 01:06:42 145.950 - 145.970 MHz USB
Saudisat 1A 02 Oct 01:13:09 01:17:18 41° 244° (WSW) 01:21:26 436.775 MHz
ISS 02 Oct 01:15:52 01:18:29 21° 338° (NNW) 01:21:06 145.800 FM
AO-40 02 Oct 01:34:44 02:51:48 17° 233° (SW) 04:58:00 Beacon 2401.320
RS-15 02 Oct 02:14:41 02:22:08 21° 101° (E) 02:29:28 29.354 - 29.394 USB, Beacon 29.352 USB
KITSAT 1 02 Oct 02:18:20 02:25:02 27° 41° (NE) 02:31:41 435.175 FM
Oscar 19 02 Oct 02:47:12 02:49:39 13° 90° (E) 02:52:06 437.125 CW, 437.150 USB
ISS 02 Oct 02:54:54 02:56:09 12° 358° (N) 02:57:25 145.800 FM
Oscar 16 02 Oct 03:26:37 03:31:19 34° 97° (E) 03:35:57 437.025 USB, Beacon 2401.1428
AO-Echo 02 Oct 03:31:26 03:35:00 19° 93° (E) 03:38:37 ?
AO-27 02 Oct 03:38:09 03:41:41 18° 92° (E) 03:45:13 436.795 MHz FM
Gurwin Techsat 1B 02 Oct 04:06:53 04:10:13 17° 91° (E) 04:13:33 435.225 FM
KITSAT 1 02 Oct 04:13:12 04:21:18 80° 243° (WSW) 04:29:20 435.175 FM
JAS-1B 02 Oct 04:13:29 04:19:04 53° 101° (E) 04:25:09 435.800 - 435.900 CW/SSB
RS-15 02 Oct 04:21:50 04:32:55 90° 120° (ESE) 04:43:54 29.354 - 29.394 USB, Beacon 29.352 USB
Oscar 19 02 Oct 04:24:22 04:29:29 69° 286° (WNW) 04:34:33 437.125 CW, 437.150 USB
ISS 02 Oct 04:31:32 04:33:54 18° 19° (NNE) 04:36:15 145.800 FM
TMSAT-1 02 Oct 04:34:27 04:38:35 23° 94° (E) 04:42:41 436.925 FM
ITAMSAT 1 02 Oct 04:37:37 04:42:50 67° 102° (ESE) 04:48:01 435.822 SSB
SO-50 02 Oct 04:38:13 04:42:04 23° 45° (NE) 04:45:57 436.795 FM
Uribyol 2 02 Oct 04:38:18 04:43:33 72° 103° (ESE) 04:48:45 436.500 FM
Oscar 16 02 Oct 05:06:11 05:10:31 28° 293° (WNW) 05:14:49 437.025 USB, Beacon 2401.1428
AO-Echo 02 Oct 05:09:08 05:13:58 49° 288° (WNW) 05:18:57 ?
AO-27 02 Oct 05:16:25 05:21:30 53° 288° (WNW) 05:26:34 436.795 MHz FM
Gurwin Techsat 1B 02 Oct 05:45:20 05:50:34 59° 287° (WNW) 05:55:46 435.225 FM
OPAL 02 Oct 05:47:01 05:51:48 38° 67° (ENE) 05:56:35 ?
AO-7 02 Oct 05:58:48 06:06:09 34° 97° (E) 06:13:27 29.400 - 29.500 MHz
JAS-1B 02 Oct 06:05:20 06:09:26 21° 297° (WNW) 06:13:43 435.800 - 435.900 CW/SSB
ISS 02 Oct 06:07:40 06:11:00 83° 37° (NE) 06:14:19 145.800 FM
KITSAT 1 02 Oct 06:11:31 06:15:23 14° 261° (W) 06:19:15 435.175 FM
TMSAT-1 02 Oct 06:13:39 06:18:40 44° 290° (WNW) 06:23:40 436.925 FM
SO-50 02 Oct 06:18:13 06:22:53 50° 243° (WSW) 06:27:35 436.795 FM
ITAMSAT 1 02 Oct 06:18:39 06:21:45 16° 299° (WNW) 06:24:52 435.822 SSB
Uribyol 2 02 Oct 06:19:32 06:22:24 15° 299° (WNW) 06:25:15 436.500 FM
MaSat-1 02 Oct 06:30:35 06:34:55 33° 108° (ESE) 06:39:07 437.345 MHz
Uosat F 02 Oct 06:31:14 06:36:05 45° 99° (E) 06:40:54 435.120 FM
RS-15 02 Oct 06:37:32 06:46:50 31° 327° (NNW) 06:56:13 29.354 - 29.394 USB, Beacon 29.352 USB
UOSAT-12 02 Oct 06:41:46 06:45:58 30° 48° (NE) 06:50:06 437.025 FM, 437.400 FM
STRAND 1 02 Oct 06:53:35 06:55:08 11° 59° (ENE) 06:56:40 ?
OPAL 02 Oct 07:26:23 07:30:43 26° 263° (W) 07:35:05 ?
JAS-2 02 Oct 07:39:59 07:46:29 46° 99° (E) 07:53:37 435.800 - 435.900 CW/SSB, 435.910 FM
ISS 02 Oct 07:46:48 07:47:13 10° 232° (SW) 07:47:38 145.800 FM
AO-7 02 Oct 07:51:12 07:59:09 53° 295° (WNW) 08:07:07 29.400 - 29.500 MHz
MaSat-1 02 Oct 08:07:12 08:11:22 29° 303° (WNW) 08:15:22 437.345 MHz
Uosat F 02 Oct 08:10:48 08:14:32 21° 296° (WNW) 08:18:16 435.120 FM
UOSAT-12 02 Oct 08:21:53 08:26:06 33° 246° (WSW) 08:30:13 437.025 FM, 437.400 FM
Hamsat 02 Oct 08:24:18 08:28:32 89° 103° (ESE) 08:32:42 145.90 MHz
STRAND 1 02 Oct 08:28:26 08:33:31 89° 75° (ENE) 08:38:40 ?
RS-15 02 Oct 08:57:11 09:04:17 19° 2° (N) 09:11:28 29.354 - 29.394 USB, Beacon 29.352 USB
JAS-2 02 Oct 09:25:24 09:31:21 35° 293° (WNW) 09:37:51 435.800 - 435.900 CW/SSB, 435.910 FM
AO-7 02 Oct 09:47:32 09:50:04 12° 316° (NW) 09:52:35 29.400 - 29.500 MHz
PCSat 02 Oct 09:53:47 09:57:33 20° 105° (ESE) 10:01:20 145.825 MHz
SO-67 02 Oct 09:57:45 10:01:05 45° 285° (WNW) 10:04:22 435.3500 MHz FM
HO-68 02 Oct 11:07:03 11:14:00 49° 100° (E) 11:20:53 435.675 MHz FM
Sapphire 02 Oct 11:09:33 11:14:56 84° 117° (ESE) 11:20:23 437.095 MHz 1200 baud AX-25 AFSK
RS-15 02 Oct 11:11:41 11:21:29 34° 37° (NE) 11:31:32 29.354 - 29.394 USB, Beacon 29.352 USB
UKube-1 02 Oct 11:16:14 11:19:37 22° 95° (E) 11:22:58 145.840 MHz, 145.915 MHz
